Regional Weather Roundup
Issued by NWS

Home | Current Version | Previous Version | Text Only | Print | Product List | Glossary On
Versions: 1 2 3 4 5 6 7 8 9 10 11 12 13 14 15 16 17 18 19 20 21 22 23 24 25 26 27 28
000
ASUS45 KTFX 110310
RWRMT
MONTANA REGIONAL WEATHER ROUNDUP
NATIONAL WEATHER SERVICE GREAT FALLS MT
800 PM MST SUN DEC 10 2017

NOTE: "FAIR" INDICATES FEW OR NO CLOUDS BELOW 12000 FEET WITH NO
SIGNIFICANT WEATHER AND/OR OBSTRUCTIONS TO VISIBILITY.

MTZ001>007-043-110400-
WEST OF THE DIVIDE

CITY           SKY/WX    TMP DP  RH WIND       PRES   REMARKS
KALISPELL      CLOUDY    25  22  88 N5        30.61S
MISSOULA       MOCLDY    16  14  92 CALM      30.61R FOG
BUTTE          FAIR      15   9  76 CALM      30.51R
MULLAN PASS    FAIR      38  32  79 S3        30.48S
ANACONDA         N/A     21  14  73 S6        30.51S WCI  14
DEER LODGE       N/A     16  12  86 CALM      30.54S
EUREKA           N/A    N/A N/A N/A MISG      30.66R
HAMILTON         N/A     16  12  86 S3        30.58S VSB 3/4
LIBBY            N/A     23  19  86 SE3       30.61R
PLAINS           N/A     23  16  75 CALM      30.59R
RONAN            N/A     25  20  81 SW3       30.59R
THOMPSON FALLS   N/A     23  20  89 CALM      30.62R
$$

MTZ008-052>055-110400-
SOUTHWEST MONTANA

CITY           SKY/WX    TMP DP  RH WIND       PRES   REMARKS
BOZEMAN        FAIR      15  10  80 S5        30.49R
DILLON         FAIR      23  13  65 S7        30.49R WCI  15
W YELLOWSTONE  FAIR       7   3  85 CALM      30.56S
ENNIS          CLOUDY    28  14  54 N8        30.53R WCI  20
THREE FORKS      N/A     15  11  84 CALM      30.42R
TWIN BRIDGES     N/A     24  12  60 CALM      30.42R
$$

MTZ009-010-012-014-046-048-049-054-110400-
EAST SLOPES AND CENTRAL MONTANA

CITY           SKY/WX    TMP DP  RH WIND       PRES   REMARKS
CUT BANK       FAIR      40  14  34 W15       30.32R
GREAT FALLS    FAIR      37  11  34 SW13      30.35S WCI  29
MALMSTROM AFB  FAIR      38  12  34 SW13      30.35R WCI  30
HELENA         FAIR      20  15  81 CALM      30.48R
BOWMANS CRNR   FAIR      34  10  37 S15       30.36S WCI  25
CHOTEAU          N/A     48  10  21 W13G18    30.36R
FAIRFIELD      FAIR      39  12  32 W3        30.34S
POWER          FAIR      31  13  46 SW9       30.33S WCI  23
RAYNESFORD     MOCLDY    51  12  21 SW20      30.33S
ULM            FAIR      42  12  29 S10       30.36S
$$

MTZ011-013-016-021-045-047-050-051-110400-
NORTH CENTRAL MONTANA

CITY           SKY/WX    TMP DP  RH WIND       PRES   REMARKS
HAVRE          FAIR      36  18  48 SW8       30.29R WCI  30
LEWISTOWN      FAIR      41  17  38 VRB6      30.32F
N BAR RANCH    FAIR      46   9  21 NW23G33   30.29S
CHINOOK          N/A     41  18  38 SW8       30.27R
DENTON         MOCLDY    42  13  31 MISG      30.26S
GEYSER         MOCLDY    45  13  27 W21       30.31S
GRASS RANGE    FAIR      46  13  26 SW21      30.24F
STANFORD       FAIR      48  15  26 NW17      30.32S
WINIFRED       FAIR      44  11  25 W8        30.28R
$$

MTZ017>020-022>027-061-062-110400-
NORTHEAST MONTANA

CITY           SKY/WX    TMP DP  RH WIND       PRES   REMARKS
GLASGOW        FAIR      37  16  42 NW16      30.15R WCI  28
GLENDIVE       FAIR      45  15  30 NW25G35   30.06S
JORDAN           N/A     43  14  31 W14       30.16S
SIDNEY         FAIR      42  16  34 NW20      30.00S
WOLF POINT     FAIR      40  16  37 NW17G23   30.09R
MALTA          CLEAR     48  19  32 NW21      30.20R
PLENTYWOOD       N/A     39  21  48 W20G26    29.98R WCI  30
POPLAR           N/A     37  14  38 W10       30.07R WCI  30
SCOBEY           N/A     43  20  40 W25       30.03R
$$

MTZ028>42-056>058-110400-
SOUTHCENTRAL AND SOUTHEAST MONTANA

CITY           SKY/WX    TMP DP  RH WIND       PRES   REMARKS
BAKER          FAIR      39  19  44 W18       30.08F WCI  30
BILLINGS       FAIR      44  12  27 W13       30.31R
LIVINGSTON     FAIR      39  14  36 W18G24    30.41R WCI  30
MILES CITY     FAIR      41  15  35 SW12      30.15F
BIG TIMBER     CLEAR     45   9  23 W31G37    30.36R
EKALAKA          N/A     42  11  28 W13       30.10R
FORSYTH          N/A     46  12  25 W14       30.20S
HARLOWTON      MOCLDY    43  10  25 NW28G36   30.32S
LAUREL           N/A     37  14  38 W9        30.34R WCI  31
ROUNDUP          N/A     44  10  25 S6        30.17R
$$

REGIONAL REPORTS...DAKOTAS

CITY           SKY/WX    TMP DP  RH WIND       PRES   REMARKS
WILLISTON      MOCLDY    40  19  43 W20       29.98R
MINOT          CLOUDY    44  24  45 W18       29.86S
DICKINSON      FAIR      35  19  52 W13       29.97F WCI  26
BEACH          FAIR      37  16  41 W14       30.06F WCI  29
CROSBY         FAIR      39  27  60 W18       29.90F WCI  30
TIOGA          CLOUDY    39  23  52 W21G26    29.93S WCI  29
BISMARCK       FAIR      41  27  57 W6        29.93F
GRAND FORKS    LGT SNOW  26  24  92 S13       29.84F FOG     WCI  15
FARGO          LGT SNOW  28  25  88 S13       29.89F FOG     WCI  17
BUFFALO SD       N/A     38  18  44 W20       30.00F WCI  28
RAPID CITY     FAIR      52   7  16 NW16      30.12S
$$

REGIONAL REPORTS...WYOMING/IDAHO/WASHINGTON

CITY           SKY/WX    TMP DP  RH WIND       PRES   REMARKS
GILLETTE       FAIR      41  15  35 W13       30.26R
SHERIDAN       FAIR      39  13  34 E5        30.29R
BUFFALO WY     FAIR      39   6  25 W7        30.30R
CODY           FAIR      33  12  41 NE9       30.36R WCI  25
YELLOWSTONE LA   N/A     11   9  92 W5        30.56S
IDAHO FALLS    FAIR      12  11  95 N3        30.59R
SALMON         CLOUDY    17  13  84 CALM      30.72R
BOISE          CLOUDY    26  20  77 S3        30.66R
SPOKANE        CLOUDY    26  24  92 N7        30.59S WCI  18
$$

REGIONAL REPORTS...ALBERTA

CITY           SKY/WX    TMP DP  RH WIND       PRES   REMARKS
EDMONTON       CLEAR     37  25  60 W13       30.26R WCI  29
CALGARY        CLEAR     48  10  21 W10G20    30.30R
LETHBRIDGE     PTCLDY    41  18  38 W15       30.31R
MEDICINE HAT   MOCLDY    41  21  45 W8        30.29R
$$

REGIONAL REPORTS...SASKATCHEWAN

CITY           SKY/WX    TMP DP  RH WIND       PRES   REMARKS
SWIFT CURRENT  CLEAR     39  25  56 NW33G44   30.09R WCI  27
REGINA         CLOUDY    39  30  70 NW33G47   29.87S WCI  27
SASKATOON      MOCLDY    37  32  81 NW28G35   29.95R WCI  25
$$




USA.gov is the U.S. government's official web portal to all federal, state and local government web resources and services.